Regional Weather Roundup
Issued by NWS

Home | Current Version | Previous Version | Text Only | Print | Product List | Glossary On
Versions: 1 2 3 4 5 6 7 8 9 10 11 12 13 14 15 16 17 18 19 20 21 22 23 24 25 26 27
000
ASPQ40 PGUM 220812
RWRPQ
WEATHER ROUNDUP FOR THE MARIANAS AND MICRONESIA
NATIONAL WEATHER SERVICE TIYAN GU
600 PM CHST FRI SEP 22 2017

GUZ001>004-220900-
MARIANA ISLANDS-

CITY           SKY/WX    TMP DP  RH WIND       PRES   REMARKS
GUAM AIRPORT   LGT RAIN  81  75  83 NE9       29.88R
ANDERSEN AFB   PTCLDY    81  77  89 NE8       29.88S
ROTA AIRPORT   NOT AVBL
TINIAN AP      LGT RAIN  81  77  89 NE16      29.86R
SAIPAN AP      LGT RAIN  81  79  94 NE10      29.87R

$$

PMZ161-220900-
REPUBLIC OF PALAU-

CITY           SKY/WX    TMP DP  RH WIND       PRES   REMARKS
KOROR AP       PTSUNNY   84  75  74 CALM      29.83R HX  92
KOROR WSO      NOT AVBL

$$

PMZ171>174-220900-
FEDERATED STATES OF MICRONESIA-

CITY           SKY/WX    TMP DP  RH WIND       PRES   REMARKS
YAP AIRPORT    NOT AVBL
CHUUK AP       CLOUDY    81  79  94 VRB5      29.78S
POHNPEI AP     NOT AVBL
POHNPEI WSO    CLOUDY    77  75  94 E5        29.86S
KOSRAE AP      NOT AVBL

$$

PMZ181-220900-
REPUBLIC OF THE MARSHALL ISLANDS-

CITY           SKY/WX    TMP DP  RH WIND       PRES   REMARKS
KWAJALEIN AP   NOT AVBL
MAJURO AP      NOT AVBL
MAJURO WSO     NOT AVBL

$$





USA.gov is the U.S. government's official web portal to all federal, state and local government web resources and services.